天绘卫星 6A星 (TIANHUI 6A)

导读

TIANHUI 6A即天绘六号A卫星,由中国航天科技集团有限公司所属中国空间技术研究院抓总研制,于北京时间2023年3月10日6时41分,在太原卫星发射中心通过长征四号丙运载火箭,以一箭双星方式和天绘六号B星一同发射,卫星顺利进入预定轨道。该卫星主要用于地理信息测绘、国土资源普查和科学试验研究等任务。

Basic Information
目录编号:
55836
目录名称:
TIANHUI 6A
国际标识:
2023-030A
轨道中心:
EARTH
卫星名称:
天绘卫星 6A星
卫星全名:
天绘卫星 6A星 (TIANHUI 6A)
卫星状态:
在轨 (已飞行1194 天)
发射日期:
2023-03-09 UTC
国别 :
中国 (CN)
星等 :
--
Orbit Information
数据来源 国际轨道数据 AOE轨道数据
星历时间 2026-06-15T06:30:28+0800
7小时前
查看轨道信息
2026-06-15T08:00:00+0800
5小时前
查看轨道信息
半长轴 7267.237km 7267.238km
偏心率 0.0002216 0.0002265
轨道倾角 99.016° 99.015°
近地点辐角 22.956° 26.795°
升交点赤经 174.199° 174.259°
平近点角 337.171° 286.825°
近地点 887.489km 887.454km
远地点 890.711km 890.748km
周期 102.758分钟 102.758分钟
每日圈数 14.013572 14.013569
Detailed Information
卫星平台:
CAST2000卫星平台
平衡模式:
三轴稳定
覆盖范围:
南北纬80°
运营商:
中国东方红卫星股份有限公司
运营商所在国:
中国
制造商(研发单位):
中国东方红卫星股份有限公司
制造商所在国:
中国
使用方式:
暂无
Satellite Introduction
天绘一号实现了中国测绘卫星从返回式胶片型到CCD传输型的跨越式发展,在中国首次实现了影像数据经过地面系统处理,无地面控制点条件下,与美国SRTM(航天飞机雷达地形测绘任务)相对精度12m/6m(平面/高程1σ)同等的技术水平,天绘二号采用CAST2000卫星平台,目前已发射01组、02组卫星。该卫星仍在工作。
2D Orbit Map
3D Orbit Map
Orbit Altitude Analysis Chart
Orbit Inclination Analysis Chart
Orbit Comprehensive Analysis Chart
View Comprehensive Chart